Content
SEND FEEDBACK

Daily
Averages
Monthly
Summary
United States of America

CAMP SAN SABA, TEXAS


Home > North America > United States > Texas
Elevation: 1690 feet     Latitude: 31 00N     Longitude: 099 16W

WEATHER
 
SELECT A DAY
Number of Records: 212,558;   Date Range: 8/25/05 - 9/19/14
 
SHARE

PRINT THIS DATA

[ ← Previous Day ]
WEATHER ALMANAC - JANUARY 31, 2013
[ Next Day → ]
[ °C ]   °F
Weather ElementAverageHighLow
Temperature49 °F66.2 °F (2:15 pm)28.4 °F (4:55 am)
Dewpoint16.3 °F19.4 °F (6:35 pm)12.2 °F (7:15 am)
Humidity31.1 %60 % (1:15 am)14 % (2:15 pm)
Barometer30.19 in30.25 in (10:15 pm)30.14 in (4:15 am)
Wind Speed8.8 mph17.3 mph (11:15 am)
Wind Gust29.9 mph (2:55 pm)
Weather ElementAverage
Visibility10 mi
Wind DirectionSW (229.6 °)

Weather ElementTotal
Precipitation---
Heating Degree Days17.7 (Base 65)
Averaged from 67 records on January 31, 2013
WEATHER CONDITIONS BREAKOUT
WIND DIRECTION BREAKOUT
WEATHER BY HOUR - JANUARY 31, 2013
[ °C ]   °F
Local TimeTemperatureDewpointHumidityBarometerVisibilityWind DirectionWind SpeedGust SpeedPrecipitationEventsConditions
1:15 AM30.2 °F17.6 °F60 %30.18 in10.0 miSW (220°)4.6 mphClear
1:35 AM32.0 °F17.6 °F55 %30.18 in10.0 miSW (220°)5.8 mphClear
1:55 AM30.2 °F17.6 °F60 %30.17 in10.0 miWest (260°)5.8 mphClear
2:15 AM30.2 °F17.6 °F60 %30.18 in10.0 miWSW (250°)4.6 mphClear
2:35 AM30.2 °F15.8 °F55 %30.17 in10.0 miWest (270°)4.6 mphClear
2:55 AM32.0 °F15.8 °F51 %30.16 in10.0 miWest (280°)5.8 mphClear
3:15 AM33.8 °F14.0 °F44 %30.15 in10.0 miWest (260°)5.8 mphClear
3:35 AM32.0 °F15.8 °F51 %30.16 in10.0 miWest (260°)6.9 mphClear
3:55 AM32.0 °F14.0 °F48 %30.15 in10.0 miWest (260°)6.9 mphClear
4:15 AM32.0 °F14.0 °F48 %30.14 in10.0 miWest (260°)5.8 mphClear
4:35 AM32.0 °F14.0 °F48 %30.15 in10.0 miSW (230°)6.9 mphClear
4:55 AM28.4 °F15.8 °F59 %30.15 in10.0 miSSW (210°)5.8 mphClear
5:15 AM30.2 °F17.6 °F60 %30.16 in10.0 miSW (220°)5.8 mphClear
5:35 AM32.0 °F15.8 °F51 %30.16 in10.0 miSW (230°)5.8 mphClear
5:55 AM30.2 °F15.8 °F55 %30.17 in10.0 miSW (220°)6.9 mphClear
6:15 AM32.0 °F14.0 °F48 %30.17 in10.0 miWSW (240°)5.8 mphClear
6:35 AM30.2 °F15.8 °F55 %30.18 in10.0 miWSW (240°)4.6 mphClear
6:55 AM32.0 °F14.0 °F48 %30.19 in10.0 miWSW (250°)4.6 mphClear
7:15 AM30.2 °F12.2 °F47 %30.19 in10.0 miSW (220°)4.6 mphClear
7:35 AM33.8 °F12.2 °F41 %30.19 in10.0 miSSW (210°)8.1 mphClear
7:55 AM35.6 °F12.2 °F38 %30.19 in10.0 miSW (220°)10.4 mphClear
8:15 AM39.2 °F14.0 °F36 %30.20 in10.0 miSW (220°)8.1 mphClear
8:35 AM42.8 °F14.0 °F31 %30.20 in10.0 miSW (220°)9.2 mphClear
8:55 AM44.6 °F14.0 °F29 %30.21 in10.0 miSW (220°)11.5 mphClear
9:15 AM48.2 °F15.8 °F27 %30.21 in10.0 miSSW (210°)11.5 mphClear
9:35 AM50.0 °F15.8 °F26 %30.23 in10.0 miSW (220°)12.7 mphClear
9:55 AM51.8 °F15.8 °F24 %30.23 in10.0 miSSW (210°)15.0 mphClear
10:15 AM55.4 °F15.8 °F21 %30.23 in10.0 miSW (220°)12.7 mphClear
10:35 AM57.2 °F15.8 °F20 %30.23 in10.0 miSW (220°)15.0 mphClear
10:55 AM57.2 °F15.8 °F20 %30.24 in10.0 miSW (230°)15.0 mphClear
11:15 AM60.8 °F15.8 °F17 %30.23 in10.0 miSSW (210°)17.3 mphClear
11:35 AM60.8 °F15.8 °F17 %30.23 in10.0 miSW (230°)16.1 mphClear
11:55 AM62.6 °F15.8 °F16 %30.22 in10.0 miSSW (210°)15.0 mphClear
12:15 PM62.6 °F15.8 °F16 %30.21 in10.0 miSW (220°)15.0 mphClear
12:35 PM62.6 °F15.8 °F16 %30.20 in10.0 miSSW (210°)17.3 mphClear
12:55 PM64.4 °F15.8 °F15 %30.19 in10.0 miSSW (210°)13.8 mphClear
1:15 PM64.4 °F15.8 °F15 %30.18 in10.0 miSSW (200°)12.7 mphClear
1:35 PM64.4 °F17.6 °F16 %30.17 in10.0 miWSW (240°)10.4 mphClear
1:55 PM64.4 °F17.6 °F16 %30.16 in10.0 miSW (220°)11.5 mphClear
2:15 PM66.2 °F15.8 °F14 %30.15 in10.0 miSW (220°)12.7 mphClear
2:35 PM66.2 °F15.8 °F14 %30.15 in10.0 miWSW (250°)17.3 mphClear
2:55 PM66.2 °F15.8 °F14 %30.15 in10.0 miWest (260°)13.8 mph29.9 mphClear
3:15 PM66.2 °F15.8 °F14 %30.15 in10.0 miSW (230°)10.4 mphClear
3:35 PM66.2 °F15.8 °F14 %30.15 in10.0 miWSW (240°)15.0 mphClear
3:55 PM66.2 °F15.8 °F14 %30.14 in10.0 miSW (220°)11.5 mphClear
4:15 PM66.2 °F15.8 °F14 %30.14 in10.0 miWSW (250°)13.8 mphClear
4:35 PM66.2 °F15.8 °F14 %30.15 in10.0 miSW (230°)12.7 mphClear
4:55 PM66.2 °F15.8 °F14 %30.16 in10.0 miWSW (240°)13.8 mphClear
5:15 PM64.4 °F15.8 °F15 %30.16 in10.0 miWSW (240°)6.9 mphClear
5:35 PM62.6 °F17.6 °F18 %30.15 in10.0 miWest (260°)6.9 mphClear
5:55 PM60.8 °F17.6 °F19 %30.16 in10.0 miSSW (210°)4.6 mphClear
6:15 PM59.0 °F17.6 °F20 %30.16 in10.0 miSSW (210°)4.6 mphClear
6:35 PM57.2 °F19.4 °F23 %30.17 in10.0 miSSW (200°)5.8 mphClear
6:55 PM57.2 °F17.6 °F21 %30.19 in10.0 miSSW (210°)6.9 mphClear
7:15 PM55.4 °F17.6 °F23 %30.19 in10.0 miSSW (210°)5.8 mphClear
7:35 PM53.6 °F19.4 °F26 %30.20 in10.0 miSSW (200°)5.8 mphClear
7:55 PM53.6 °F19.4 °F26 %30.21 in10.0 miSSW (210°)5.8 mphClear
8:15 PM53.6 °F19.4 °F26 %30.21 in10.0 miSSW (210°)5.8 mphClear
8:35 PM53.6 °F19.4 °F26 %30.22 in10.0 miSSW (210°)4.6 mphClear
9:15 PM51.8 °F19.4 °F28 %30.24 in10.0 miSW (220°)5.8 mphClear
9:35 PM48.2 °F19.4 °F32 %30.24 in10.0 miSW (230°)4.6 mphClear
10:15 PM48.2 °F19.4 °F32 %30.25 in10.0 miWSW (240°)5.8 mphClear
10:35 PM46.4 °F17.6 °F32 %30.25 in10.0 miSW (230°)4.6 mphClear
10:55 PM48.2 °F17.6 °F30 %30.24 in10.0 miWSW (240°)3.5 mphClear
11:15 PM46.4 °F17.6 °F32 %30.25 in10.0 miWSW (250°)4.6 mphClear
11:35 PM46.4 °F17.6 °F32 %30.25 in10.0 miWSW (250°)4.6 mphClear
11:55 PM44.6 °F19.4 °F37 %30.25 in10.0 miWest (260°)4.6 mphClear
Hourly data recorded from KBBD, located miles away from Camp San Saba, Texas







STORIES FROM OUR PARTNERS